Chanute, KS

11:08 AM CDT on April 28, 2017 (GMT -0500)
Chanute Martin Johnson

Weather History for KCNU - February, 2014

Change the Weather History Date:

Thursday, February 13, 2014

  Actual Average Record
Temperature  
Mean Temperature 37 °F 37 °F  
Max Temperature 49 °F 47 °F 77 °F (1921)
Min Temperature 24 °F 26 °F 3 °F (1899)
Degree Days  
Heating Degree Days 28 28  
Month to date heating degree days 590 388  
Since 1 July heating degree days 3629 3187  
Cooling Degree Days 0 0  
Month to date cooling degree days 0 0  
Year to date cooling degree days 0 0  
Moisture  
Dew Point 28 °F    
Average Humidity 74    
Maximum Humidity 92    
Minimum Humidity 56    
Precipitation  
Precipitation 0.00 in 0.06 in 1.25 in (1978)
Month to date precipitation T 0.76  
Year to date precipitation 0.11 2.02  
Sea Level Pressure  
Sea Level Pressure 29.89 in    
Wind  
Wind Speed 7 mph (SSW)    
Max Wind Speed 16 mph    
Max Gust Speed 21 mph    
Visibility 8 miles    
Events      
T = Trace of Precipitation, MM = Missing Value Source: NWS Daily Summary

Daily Weather History Graph

Daily Weather History Graph

Search for Another Location

Airport or City:

Trip Planner

Search our weather history database for the weather conditions in past years. The results will help you decide how hot, cold, wet, or windy it might be!

Date:

Astronomy

Feb. 13, 2014 Rise Set
Actual Time 7:13 AM CST 5:59 PM CST
Civil Twilight 6:46 AM CST 6:26 PM CST
Nautical Twilight 6:16 AM CST 6:56 PM CST
Astronomical Twilight 5:45 AM CST 7:27 PM CST
Moon 5:08 PM CST (2/13) 6:07 AM CST (2/13)
Length of Visible Light 11h 39m
Length of Day
10h 45m
Waxing Gibbous, 99% of the Moon is Illuminated
Feb 13
Waxing Gibbous
Feb 14
Full
Feb 22
Last Quarter
Mar 1
New
Mar 8
First Quarter

Hourly Weather History & Observations

Time (CST) Temp. Windchill Dew Point Humidity Pressure Visibility Wind Dir Wind Speed Gust Speed Precip Events Conditions
12:52 AM 25.0 °F 17.1 °F 21.9 °F 88% 29.99 in 5.0 mi SSE 6.9 mph - N/A   Clear
1:52 AM 27.0 °F 21.6 °F 24.1 °F 89% 29.99 in 5.0 mi WSW 4.6 mph - N/A   Clear
2:52 AM 28.0 °F 22.8 °F 25.0 °F 88% 29.98 in 5.0 mi SSW 4.6 mph - N/A   Clear
3:52 AM 26.1 °F 17.6 °F 23.0 °F 88% 29.94 in 4.0 mi SSE 8.1 mph - N/A   Clear
4:52 AM 26.1 °F 16.8 °F 23.0 °F 88% 29.94 in 4.0 mi South 9.2 mph - N/A   Clear
5:52 AM 26.1 °F 18.4 °F 23.0 °F 88% 29.94 in 5.0 mi South 6.9 mph - N/A   Clear
6:52 AM 27.0 °F 18.0 °F 24.1 °F 89% 29.95 in 6.0 mi SSW 9.2 mph - N/A   Clear
7:52 AM 27.0 °F 17.3 °F 24.1 °F 89% 29.94 in 5.0 mi South 10.4 mph - N/A   Clear
8:52 AM 30.0 °F 21.1 °F 26.1 °F 85% 29.95 in 6.0 mi SSW 10.4 mph - N/A   Clear
9:52 AM 33.1 °F 24.9 °F 28.0 °F 82% 29.96 in 8.0 mi SW 10.4 mph 18.4 mph N/A   Clear
10:52 AM 36.0 °F 28.0 °F 28.9 °F 76% 29.94 in 10.0 mi SSW 11.5 mph - N/A   Clear
11:52 AM 39.9 °F 32.9 °F 30.0 °F 68% 29.92 in 10.0 mi SW 11.5 mph - N/A   Clear
12:52 PM 43.0 °F 37.2 °F 30.9 °F 62% 29.90 in 10.0 mi WSW 10.4 mph - N/A   Clear
1:52 PM 45.0 °F 39.3 °F 32.0 °F 60% 29.87 in 10.0 mi West 11.5 mph - N/A   Clear
2:52 PM 46.9 °F - 33.1 °F 59% 29.84 in 10.0 mi West 11.5 mph - N/A   Clear
3:52 PM 48.0 °F - 33.1 °F 56% 29.84 in 10.0 mi WSW 6.9 mph - N/A   Clear
4:52 PM 48.0 °F - 33.1 °F 56% 29.84 in 10.0 mi WSW 6.9 mph - N/A   Clear
5:52 PM 42.1 °F - 30.9 °F 65% 29.84 in 10.0 mi Calm Calm - N/A   Clear
6:52 PM 34.0 °F - 28.9 °F 82% 29.84 in 10.0 mi Calm Calm - N/A   Clear
7:52 PM 32.0 °F 28.7 °F 28.0 °F 85% 29.85 in 10.0 mi WSW 3.5 mph - N/A   Clear
8:52 PM 32.0 °F - 28.0 °F 85% 29.84 in 10.0 mi Calm Calm - N/A   Clear
9:52 PM 30.9 °F 26.2 °F 28.0 °F 89% 29.80 in 10.0 mi SE 4.6 mph - N/A   Clear
10:52 PM 32.0 °F 26.4 °F 28.9 °F 88% 29.79 in 10.0 mi South 5.8 mph - N/A   Clear
11:52 PM 35.1 °F 27.4 °F 30.0 °F 82% 29.76 in 10.0 mi South 10.4 mph - N/A   Clear